Find SaudiComsat-5

NORAD ID: 31124 Int'l Des: 2007-012 Owner: KACST Country: SA operational
LEOCIRCULARRETROGRADESSO

实时位置

正在加载3D地球...

关于 SaudiComsat-5

正在加载描述...

即将过境

Passes for default location (London). Set your location on the main map for personalized predictions.

高度历史

Loading altitude history...

两行轨道根数

1 31124U 07012H 26106.20150037 .00000355 00000-0 70225-4 0 9997
2 31124 98.3449 79.8435 0046631 322.0279 37.7640 14.68081637 14502
Epoch: Apr 16, 2026 • Age: 9 hours

当前状态

高度 684.7 km
速度 7.52 km/s
星下点 -58.96°S, 170.14°W
发射日期 Apr 17, 2007
运行时间 18.9 years
类型 other

技术详情

分类 Payload
质量 12.00 kg
干质量 12.00 kg
总质量 12.00 kg
长度 0.20 m
直径 0.20 m
跨度 0.20 m
形状 Box
制造商 KACST
平台类型 Saudisat
阶段状态 In Orbit
所有者/国家 KACST/SA

Most Searched